Location: Staunton
(38.1490°N, 79.0720°W)
Time: 22:32:18
(UTC-04:00)

ISS - Pass Details

Date: 29 March 2017
Orbit: 401 x 409 km, 51.6° (Epoch: 01 May)

Event Time Altitude Azimuth Distance (km) Brightness Sun altitude
Rises 20:01:38 0° 228° (SW) 2,301 0.6 -5.6°
Reaches altitude 10° 20:03:42 10° 227° (SW) 1,447 -0.5 -6.0°
Maximum altitude 20:06:56 83° 141° (SE) 410 -3.9 -6.7°
Drops below altitude 10° 20:10:13 10° 52° (NE) 1,461 -1.4 -7.3°
Enters shadow 20:12:03 - 52° (NE) 2,219 -0.5 -7.7°
